Frederick, MD

2:18 AM EST on February 08, 2016 (GMT -0500)
Frederick Municipal

Weather History for KFDK - August, 2013

Change the Weather History Date:

Wednesday, August 21, 2013

  Actual Average (KHGR) Record (KHGR)
Temperature  
Mean Temperature 74 °F 73 °F  
Max Temperature 87 °F 83 °F 89 °F (2005)
Min Temperature 60 °F 63 °F 54 °F (2008)
Degree Days  
Heating Degree Days 0 0  
Month to date heating degree days 0  
Since 1 June heating degree days 18  
Since 1 July heating degree days 0  
Cooling Degree Days 8 8  
Month to date cooling degree days 190  
Year to date cooling degree days 796  
Since 1 June cooling degree days 720  
Growing Degree Days 24 (Base 50)    
Moisture  
Dew Point 66 °F    
Average Humidity 90    
Maximum Humidity 100    
Minimum Humidity 58    
Precipitation  
Precipitation 0.00 in 0.11 in 0.85 in (2007)
Month to date precipitation 2.11  
Year to date precipitation 25.60  
Sea Level Pressure  
Sea Level Pressure 30.18 in    
Wind  
Wind Speed 1 mph (SSW)    
Max Wind Speed 14 mph    
Max Gust Speed -    
Visibility 6 miles    
Events Fog , Rain , Thunderstorm    
T = Trace of Precipitation, MM = Missing Value Source: NWS Daily Summary

Daily Weather History Graph

Daily Weather History Graph

Search for Another Location

Airport or City:

Trip Planner

Search our weather history database for the weather conditions in past years. The results will help you decide how hot, cold, wet, or windy it might be!

Date:

Astronomy

Aug. 21, 2013 Rise Set
Actual Time 6:27 AM EDT 7:56 PM EDT
Civil Twilight 5:59 AM EDT 8:24 PM EDT
Nautical Twilight 5:25 AM EDT 8:58 PM EDT
Astronomical Twilight 4:49 AM EDT 9:34 PM EDT
Moon 8:04 PM EDT (8/21) 7:05 AM EDT (8/21)
Length of Visible Light 14h 24m
Length of Day
13h 28m
Full, 100% of the Moon is Illuminated
Aug 21
Full
Aug 28
Last Quarter
Sep 5
New
Sep 12
First Quarter
Sep 19
Full

Hourly Weather History & Observations

Time (EDT) Temp. Heat Index Dew Point Humidity Pressure Visibility Wind Dir Wind Speed Gust Speed Precip Events Conditions
12:05 AM 64.4 °F - 64.4 °F 100% 30.20 in 5.0 mi Calm Calm - N/A   Scattered Clouds
12:25 AM 64.4 °F - 64.4 °F 100% 30.20 in 4.0 mi Calm Calm - N/A   Scattered Clouds
12:45 AM 64.4 °F - 64.4 °F 100% 30.20 in 2.0 mi Calm Calm - N/A   Clear
1:05 AM 62.6 °F - 62.6 °F 100% 30.19 in 4.0 mi Calm Calm - N/A   Clear
1:25 AM 62.6 °F - 62.6 °F 100% 30.20 in 0.8 mi Calm Calm - N/A   Mostly Cloudy
1:45 AM 62.6 °F - 62.6 °F 100% 30.20 in 2.5 mi Calm Calm - N/A   Scattered Clouds
2:05 AM 64.4 °F - 64.4 °F 100% 30.20 in 5.0 mi Calm Calm - N/A   Mostly Cloudy
2:25 AM 64.4 °F - 64.4 °F 100% 30.20 in 2.5 mi Calm Calm - N/A   Scattered Clouds
2:45 AM 62.6 °F - 62.6 °F 100% 30.20 in 2.5 mi Calm Calm - N/A   Clear
3:05 AM 62.6 °F - 62.6 °F 100% 30.20 in 4.0 mi Calm Calm - N/A   Clear
3:25 AM 62.6 °F - 62.6 °F 100% 30.20 in 4.0 mi Calm Calm - N/A   Clear
3:45 AM 62.6 °F - 62.6 °F 100% 30.20 in 1.0 mi Calm Calm - N/A   Mist
4:05 AM 62.6 °F - 62.6 °F 100% 30.20 in 0.8 mi Calm Calm - N/A   Mist
4:25 AM 62.6 °F - 62.6 °F 100% 30.20 in 3.0 mi Calm Calm - N/A   Scattered Clouds
4:45 AM 62.6 °F - 62.6 °F 100% 30.20 in 2.5 mi Calm Calm - N/A   Clear
5:05 AM 60.8 °F - 60.8 °F 100% 30.20 in 1.0 mi Calm Calm - N/A   Mist
5:25 AM 60.8 °F - 60.8 °F 100% 30.20 in 0.2 mi Calm Calm - N/A Fog Fog
5:45 AM 60.8 °F - 60.8 °F 100% 30.20 in 2.5 mi Calm Calm - N/A   Clear
6:05 AM 60.8 °F - 60.8 °F 100% 30.20 in 0.8 mi Calm Calm - N/A   Mostly Cloudy
6:25 AM 60.8 °F - 60.8 °F 100% 30.22 in 0.8 mi Calm Calm - N/A   Mostly Cloudy
6:40 AM 60.8 °F - 60.8 °F 100% 30.22 in 0.8 mi Calm Calm - N/A   Mist
6:50 AM 62.6 °F - 62.6 °F 100% 30.22 in 5.0 mi Calm Calm - N/A   Clear
7:50 AM 64.4 °F - 64.4 °F 100% 30.23 in 6.0 mi Calm Calm - N/A   Clear
8:45 AM 69.8 °F - 66.2 °F 88% 30.23 in 5.0 mi Calm Calm - N/A   Clear
9:45 AM 73.4 °F - 68.0 °F 83% 30.23 in 5.0 mi Calm Calm - N/A   Clear
10:45 AM 80.6 °F 84.6 °F 71.6 °F 74% 30.23 in 7.0 mi South 3.5 mph - N/A   Clear
11:47 AM 84.2 °F 89.6 °F 71.6 °F 66% 30.22 in 10.0 mi SW 3.5 mph - N/A   Scattered Clouds
12:50 PM 86.0 °F 93.4 °F 73.4 °F 66% 30.21 in 10.0 mi South 4.6 mph - N/A   Mostly Cloudy
1:45 PM 87.8 °F 95.6 °F 73.4 °F 62% 30.19 in 10.0 mi SSW 6.9 mph - N/A   Mostly Cloudy
2:45 PM 87.8 °F 93.8 °F 71.6 °F 58% 30.16 in 10.0 mi South 8.1 mph - N/A   Mostly Cloudy
5:47 PM 84.2 °F 89.6 °F 71.6 °F 66% 30.12 in 10.0 mi Calm Calm - N/A   Scattered Clouds
5:59 PM 87.8 °F 93.8 °F 71.6 °F 58% 30.12 in 10.0 mi SW 6.9 mph - N/A   Scattered Clouds
6:45 PM 82.4 °F 87.2 °F 71.6 °F 70% 30.11 in 10.0 mi Calm Calm - N/A   Mostly Cloudy
7:48 PM 78.8 °F - 71.6 °F 78% 30.11 in 10.0 mi Calm Calm - N/A   Scattered Clouds
8:50 PM 77.0 °F - 71.6 °F 83% 30.12 in 10.0 mi SSE 3.5 mph - N/A   Clear
9:10 PM 75.2 °F - 71.6 °F 89% 30.12 in 10.0 mi Calm Calm - N/A   Clear
9:30 PM 73.4 °F - 71.6 °F 94% 30.12 in 10.0 mi Calm Calm - N/A   Clear
9:50 PM 73.4 °F - 71.6 °F 94% 30.12 in 10.0 mi SW 5.8 mph - N/A Thunderstorm Thunderstorm
10:10 PM 77.0 °F - 71.6 °F 83% 30.12 in 10.0 mi SSW 13.8 mph - N/A Thunderstorm Mostly Cloudy
10:30 PM 71.6 °F - 68.0 °F 88% 30.12 in 10.0 mi South 4.6 mph - N/A Thunderstorm Thunderstorm
10:50 PM 71.6 °F - 66.2 °F 83% 30.11 in 10.0 mi Calm Calm - N/A Rain Light Rain
11:10 PM 69.8 °F - 66.2 °F 88% 30.11 in 10.0 mi Calm Calm - N/A   Clear
11:30 PM 69.8 °F - 68.0 °F 94% 30.11 in 10.0 mi Calm Calm - N/A   Clear
11:50 PM 69.8 °F - 68.0 °F 94% 30.10 in 10.0 mi Calm Calm - N/A   Scattered Clouds